User: anonymous   Login
Location: Christchurch
(43.5330°S, 172.6330°E)
Time: 12:44:38
(UTC+13:00)
Language:

Cosmos 2208 Rocket - Orbit

View from above orbital plane
View from above orbital plane
View from above satellite
View from above satellite

Ground track
Ground track

The orbit data is extracted from the following two-line orbital elements,

1 22081U 92053B   19080.14864720  .00000033  00000-0  21237-4 0  9997
2 22081  74.0459 344.4841 0035717 158.2061 202.0620 14.33442194390827
Epoch (UTC): 21 March 2019 03:34:03
Eccentricity: 0.0035717
inclination: 74.0459°
perigee height: 754 km
apogee height: 806 km
right ascension of ascending node: 344.4841°
argument of perigee: 158.2061°
revolutions per day: 14.33442194
mean anomaly at epoch: 202.0620°
orbit number at epoch: 39082

The dashed part of the orbit path shows where the satellite is in the earth's shadow,  

DLR